Location: Tucson
(32.2217°N, 110.9265°W)
Time: 16:27:18
(UTC-07:00)

Transit 2A Rocket - Pass Details

Date: 08 August 2022
Orbit: 593 x 908 km, 66.7° (Epoch: 26 September)

Event Time Altitude Azimuth Distance (km) Brightness Sun altitude
Rises 04:53:31 0° 336° (NNW) 2,876 8.0 -10.5°
Reaches altitude 10° 04:55:43 10° 338° (NNW) 1,995 7.2 -10.1°
Maximum altitude 05:00:12 76° 64° (ENE) 676 4.9 -9.3°
Drops below altitude 10° 05:05:02 10° 151° (SSE) 2,147 7.4 -8.3°
Sets 05:07:28 0° 152° (SSE) 3,114 8.2 -7.9°
